San Antonio, TX

6:20 PM CDT on September 25, 2017 (GMT -0500)
San Antonio International

Weather History for KSAT - May, 2012

Change the Weather History Date:

Wednesday, May 23, 2012

  Actual Average Record
Temperature  
Mean Temperature 82 °F 79 °F  
Max Temperature 92 °F 89 °F 99 °F (1996)
Min Temperature 71 °F 69 °F 53 °F (1892)
Degree Days  
Heating Degree Days 0 0  
Month to date heating degree days 0 0  
Since 1 July heating degree days 1130 1494  
Cooling Degree Days 17 14  
Month to date cooling degree days 268 254  
Year to date cooling degree days 711 513  
Growing Degree Days 31 (Base 50)    
Moisture  
Dew Point 69 °F    
Average Humidity 70    
Maximum Humidity 90    
Minimum Humidity 49    
Precipitation  
Precipitation 0.00 in 0.14 in 2.81 in (2015)
Month to date precipitation 9.84 2.84  
Year to date precipitation 22.74 10.80  
Snow  
Snow 0.00 in - - ()
Month to date snowfall 0.0  
Since 1 July snowfall T  
Snow Depth 0.00 in    
Sea Level Pressure  
Sea Level Pressure 29.70 in    
Wind  
Wind Speed 14 mph (SSE)    
Max Wind Speed 22 mph    
Max Gust Speed 28 mph    
Visibility 10 miles    
Events      
T = Trace of Precipitation, MM = Missing Value Source: NWS Daily Summary

Daily Weather History Graph

Daily Weather History Graph

Search for Another Location

Airport or City:

Trip Planner

Search our weather history database for the weather conditions in past years. The results will help you decide how hot, cold, wet, or windy it might be!

Date:

Astronomy

May. 23, 2012 Rise Set
Actual Time 6:37 AM CDT 8:24 PM CDT
Civil Twilight 6:10 AM CDT 8:51 PM CDT
Nautical Twilight 5:38 AM CDT 9:23 PM CDT
Astronomical Twilight 5:04 AM CDT 9:56 PM CDT
Moon 8:42 AM CDT (5/23) 10:48 PM CDT (5/23)
Length of Visible Light 14h 40m
Length of Day
13h 47m
Waxing Crescent, 7% of the Moon is Illuminated
May 23
Waxing Crescent
May 28
First Quarter
Jun 4
Full
Jun 11
Last Quarter
Jun 19
New

Hourly Weather History & Observations

Time (CDT) Temp. Heat Index Dew Point Humidity Pressure Visibility Wind Dir Wind Speed Gust Speed Precip Events Conditions
12:53 AM 73.9 °F - 59.0 °F 59% 29.81 in 10.0 mi SSE 9.2 mph - N/A   Clear
1:53 AM 73.0 °F - 63.0 °F 71% 29.80 in 10.0 mi SSE 6.9 mph - N/A   Clear
2:53 AM 71.6 °F - 66.2 °F 83% 29.83 in 10.0 mi SSE 8.1 mph - N/A   Clear
3:40 AM 71.6 °F - 68.0 °F 88% 29.82 in 10.0 mi SSE 11.5 mph - N/A   Mostly Cloudy
3:53 AM 72.0 °F - 68.0 °F 87% 29.77 in 10.0 mi SSE 11.5 mph - N/A   Mostly Cloudy
4:53 AM 72.0 °F - 68.0 °F 87% 29.75 in 10.0 mi South 11.5 mph 20.7 mph N/A   Overcast
5:53 AM 72.0 °F - 68.0 °F 87% 29.74 in 10.0 mi South 12.7 mph - N/A   Mostly Cloudy
6:53 AM 72.0 °F - 68.0 °F 87% 29.74 in 10.0 mi South 10.4 mph - N/A   Overcast
7:53 AM 73.0 °F - 68.0 °F 84% 29.75 in 10.0 mi South 12.7 mph - N/A   Mostly Cloudy
8:53 AM 73.9 °F - 68.0 °F 82% 29.76 in 10.0 mi South 15.0 mph 21.9 mph N/A   Mostly Cloudy
9:53 AM 75.9 °F - 69.1 °F 79% 29.76 in 10.0 mi South 9.2 mph - N/A   Mostly Cloudy
10:53 AM 77.0 °F - 69.1 °F 76% 29.75 in 10.0 mi SSE 13.8 mph 19.6 mph N/A   Overcast
11:53 AM 82.0 °F 85.9 °F 70.0 °F 67% 29.73 in 10.0 mi SSE 13.8 mph - N/A   Scattered Clouds
12:53 PM 84.9 °F 90.1 °F 71.1 °F 63% 29.70 in 10.0 mi South 15.0 mph - N/A   Scattered Clouds
1:53 PM 86.0 °F 91.5 °F 71.1 °F 61% 29.69 in 10.0 mi SSE 11.5 mph 20.7 mph N/A   Scattered Clouds
2:53 PM 89.1 °F 95.0 °F 71.1 °F 55% 29.65 in 10.0 mi SSE 15.0 mph 21.9 mph N/A   Partly Cloudy
3:53 PM 91.0 °F 96.6 °F 70.0 °F 50% 29.62 in 10.0 mi SE 15.0 mph 21.9 mph N/A   Partly Cloudy
4:53 PM 91.0 °F 96.6 °F 70.0 °F 50% 29.60 in 10.0 mi SE 20.7 mph 25.3 mph N/A   Partly Cloudy
5:53 PM 91.0 °F 95.6 °F 69.1 °F 48% 29.59 in 10.0 mi SSE 17.3 mph 25.3 mph N/A   Partly Cloudy
6:53 PM 89.1 °F 94.1 °F 70.0 °F 53% 29.58 in 10.0 mi SE 19.6 mph - N/A   Partly Cloudy
7:53 PM 84.9 °F 89.4 °F 70.0 °F 61% 29.58 in 10.0 mi SE 17.3 mph - N/A   Clear
8:53 PM 82.9 °F 88.0 °F 72.0 °F 69% 29.59 in 10.0 mi SE 18.4 mph - N/A   Clear
9:53 PM 80.1 °F 83.6 °F 71.1 °F 74% 29.61 in 10.0 mi SE 15.0 mph 24.2 mph N/A   Partly Cloudy
10:53 PM 78.1 °F - 70.0 °F 76% 29.62 in 10.0 mi SE 12.7 mph - N/A   Partly Cloudy
11:28 PM 75.2 °F - 69.8 °F 83% 29.69 in 10.0 mi SSE 10.4 mph - N/A   Mostly Cloudy
11:53 PM 75.9 °F - 70.0 °F 82% 29.64 in 10.0 mi SE 16.1 mph 23.0 mph N/A   Mostly Cloudy